SCP
1 1 1 1 0 0 0 0 0 0 0 0 0 0 0 0 0 0 0 0 0 0 0 0 0 0 0 0 0 0 0 0 0 0 0 0 0 0 0 0 0 0 0
1 1 1 1 0 0 0 0 0 0 0 0 0 0 0 0 0 0 0 0 0 0 0 0 0 0 0 0 0 0 0 0 0 0 0 0 0 0 0 0 0 0 0
1 1 1 1 0 0 0 0 0 0 0 0 0 0 0 0 0 0 0 0 0 0 0 0 0 0 0 0 0 0 0 0 0 0 0 0 0 0 0 0 0 0 0
2 1 1 0 0 0 0 0 0 0 0 0 0 0 0 0 0 0 0 0 0 0 0 0 0 0 0 0 0 0 0 0 0 0 0 0 0 0 0 0 0 0 0
2 1 1 0 0 0 0 0 0 0 0 0 0 0 0 0 0 0 0 0 0 0 0 0 0 0 0 0 0 0 0 0 0 0 0 0 0 0 0 0 0 0 0
2 1 1 0 0 0 0 0 0 0 0 0 0 0 0 0 0 0 0 0 0 0 0 0 0 0 0 0 0 0 0 0 0 0 0 0 0 0 0 0 0 0 0
2 1 1 0 0 0 0 0 0 0 0 0 0 0 0 0 0 0 0 0 0 0 0 0 0 0 0 0 0 0 0 0 0 0 0 0 0 0 0 0 0 0 0
1 1 0 0 0 0 0 0 0 0 0 0 0 0 0 0 0 0 0 0 0 0 0 0 0 0 0 0 0 0 0 0 0 0 0 0 0 0 0 0 0 0 0
1 0 0 0 0 0 0 0 0 0 0 0 0 0 0 0 0 0 0 0 0 0 0 0 0 0 0 0 0 0 0 0 0 0 0 0 0 0 0 0 0 0 0
0 0 0 0 0 0 0 0 0 0 0 0 0 0 0 0 0 0 0 0 0 0 0 0 0 0 0 0 0 0 0 0 0 0 0 0 0 0 0 0 0 0 0
0 0 0 0 0 0 0 0 0 0 0 0 0 0 0 0 0 0 0 0 0 0 0 0 0 0 0 0 0 0 0 0 0 0 0 0 0 0 0 0 0 0 0
0 0 0 0 0 0 0 0 0 0 0 0 0 0 0 0 0 0 0 0 0 0 0 0 0 0 0 0 0 0 0 0 0 0 0 0 0 0 0 0 0 0 0
0 0 0 0 0 0 0 0 0 0 0 0 0 0 0 0 0 0 0 0 0 0 0 0 0 0 0 0 0 0 0 0 0 0 0 0 0 0 0 0 0 0 0
0 0 0 0 0 0 0 0 0 0 0 0 0 0 0 0 0 0 0 0 0 0 0 0 0 0 0 0 0 0 0 0 0 0 0 0 0 0 0 0 0 0 0
0 0 0 0 0 0 0 0 0 0 0 0 0 0 0 0 0 0 0 0 0 0 0 0 0 0 0 0 0 0 0 0 0 0 0 0 0 0 0 0 0 0 0
0 0 0 0 0 0 0 0 0 0 0 0 0 0 0 0 0 0 0 0 0 0 0 0 0 0 0 0 0 0 0 0 0 0 0 0 0 0 0 0 0 0 0
0 0 0 0 0 0 0 0 0 0 0 0 0 0 0 0 0 0 0 0 0 0 0 0 0 0 0 0 0 0 0 0 0 0 0 0 0 0 0 0 0 0 0
0 0 0 0 0 0 0 0 0 0 0 0 0 0 0 0 0 0 0 0 0 0 0 0 0 0 0 0 0 0 0 0 0 0 0 0 0 0 0 0 0 0 0
0 0 0 0 0 0 0 0 0 0 0 0 0 0 0 0 0 0 0 0 0 0 0 0 0 0 0 0 0 0 0 0 0 0 0 0 0 0 0 0 0 0 0
0 0 0 0 0 0 0 0 0 0 0 0 0 0 0 0 0 0 0 0 0 0 0 0 0 0 0 0 0 0 0 0 0 0 0 0 0 0 0 0 0 0 0
0 0 0 0 0 0 0 0 0 0 0 0 0 0 0 0 0 0 0 0 0 0 0 0 0 0 0 0 0 0 0 0 0 0 0 0 0 0 0 0 0 0 0
0 0 0 0 0 0 0 0 0 0 0 0 0 0 0 0 0 0 0 0 0 0 0 0 0 0 0 0 0 0 0 0 0 0 0 0 0 0 0 0 0 0 0
0 0 0 0 0 0 0 0 0 0 0 0 0 0 0 0 0 0 0 0 0 0 0 0 0 0 0 0 0 0 0 0 0 0 0 0 0 0 0 0 0 0 0
0 0 0 0 0 0 0 0 0 0 0 0 0 0 0 0 0 0 0 0 0 0 0 0 0 0 0 0 0 0 0 0 0 0 0 0 0 0 0 0 0 0 0
0 0 0 0 0 0 0 0 0 0 0 0 0 0 0 0 0 0 0 0 0 0 0 0 0 0 0 0 0 0 0 0 0 0 0 0 0 0 0 0 0 0 0
0 0 0 0 0 0 0 0 0 0 0 0 0 0 0 0 0 0 0 0 0 0 0 0 0 0 0 0 0 0 0 0 0 0 0 0 0 0 0 0 0 0 0
Wind_Speed
7 8 7 8 8 7 8 7 7 6 5 4 4 5 4 4 5 6 7 7 7 7 7 5 5 5 5 5 4 3 4 4 3 3 4 3 3 3 2 1 2 3 3
8 8 8 7 8 8 8 7 6 5 4 4 4 4 5 4 4 4 7 8 7 7 6 6 5 4 4 5 5 4 2 2 3 2 3 4 3 2 2 3 4 4 4
9 9 10 10 9 8 7 7 7 7 7 6 6 5 5 4 4 5 4 6 7 7 6 5 4 4 4 3 2 2 2 2 2 1 2 3 4 4 3 4 4 4 5
9 9 11 11 10 9 9 9 9 9 8 6 7 7 5 4 3 2 3 5 6 6 6 5 4 4 3 2 3 2 2 2 2 2 2 3 3 5 5 3 4 7 8
11 11 11 12 10 10 10 10 11 10 9 8 8 8 7 5 3 3 5 4 4 5 5 4 4 3 2 2 3 3 2 1 2 2 2 3 3 4 5 7 6 7 8
13 13 12 12 11 10 10 10 11 10 8 9 8 8 8 6 5 4 3 3 2 3 4 3 3 2 1 2 2 2 2 2 2 2 2 2 3 4 5 8 10 9 9
13 14 14 13 12 11 10 9 10 9 7 8 7 6 6 5 5 3 2 1 1 2 3 2 2 2 2 2 1 1 1 1 2 2 3 4 5 6 7 9 10 11 9
13 14 14 13 12 11 9 9 9 7 6 6 5 4 4 3 2 2 1 1 1 2 3 3 3 3 3 2 1 1 2 2 3 5 5 5 7 6 7 7 8 10 9
15 15 13 12 11 10 9 8 8 7 5 5 5 4 3 3 2 1 0 1 2 2 3 4 4 4 4 3 2 2 3 3 4 5 6 6 6 7 7 7 7 7 10
15 14 12 10 9 8 7 7 7 7 5 4 4 3 2 2 1 1 2 2 3 3 4 4 4 5 5 4 4 4 5 5 5 4 7 7 7 7 7 7 7 8 9
15 12 9 8 8 7 7 7 6 5 4 3 2 1 0 1 1 2 3 3 3 4 5 5 5 5 6 5 5 7 7 7 8 7 7 10 10 8 8 7 8 8 8
14 11 10 8 7 7 6 5 4 4 3 2 1 1 1 1 2 3 4 4 4 5 5 5 6 6 7 6 7 9 9 8 9 9 9 11 9 11 9 8 10 9 9
15 12 11 9 8 7 6 5 4 3 2 2 2 2 2 3 3 4 5 5 5 6 6 6 7 7 7 7 8 9 9 9 9 9 10 11 12 12 11 11 11 9 8
16 13 11 9 7 5 4 4 3 2 2 2 3 3 4 4 5 6 6 6 5 6 7 7 7 7 7 7 7 6 7 8 9 10 11 12 13 13 14 12 12 9 8
17 14 11 8 7 4 3 2 2 1 1 3 3 4 5 5 5 6 6 6 6 7 6 6 6 6 5 4 4 4 6 8 10 12 13 13 17 20 15 11 8 8 8
18 14 12 10 8 6 4 3 2 2 3 3 4 4 4 5 6 6 7 7 7 6 5 4 4 3 2 4 8 9 7 9 11 13 13 14 15 16 17 18 17 15 12
17 15 12 10 8 6 5 4 3 3 3 3 4 5 5 6 7 7 7 7 6 4 3 3 3 3 3 7 10 15 11 11 12 12 12 11 11 15 12 14 17 17 19
14 12 10 8 6 5 3 2 2 2 3 4 5 6 6 7 7 6 6 6 4 4 4 5 5 4 6 11 13 18 12 12 12 12 12 12 13 13 13 12 13 13 14
9 8 7 6 5 4 3 1 1 2 3 5 5 6 6 5 5 6 7 6 5 5 5 4 5 6 9 13 16 17 11 11 13 12 12 12 12 15 17 13 12 13 13
7 6 6 5 5 3 2 1 2 3 4 5 5 4 4 5 7 7 6 5 5 5 5 6 6 8 9 13 15 16 8 10 11 11 11 13 12 14 15 10 9 11 12
6 5 5 5 4 3 2 1 2 3 4 3 4 5 6 7 6 5 5 5 5 6 7 8 8 8 9 12 14 17 9 9 10 10 9 8 13 14 14 11 9 11 12
5 5 5 4 2 2 1 1 3 3 3 5 6 6 6 5 5 5 5 5 6 7 8 8 9 7 8 10 13 18 18 16 10 9 8 8 14 15 14 10 10 13 8
5 4 4 3 0 0 1 1 2 3 5 6 6 6 6 6 5 4 5 4 5 6 7 8 8 8 8 9 14 16 18 20 12 9 15 17 16 13 9 10 11 6 2
4 3 3 2 2 2 2 2 3 5 6 7 6 5 5 5 5 4 4 4 5 6 7 8 8 8 8 8 10 10 10 14 12 10 13 15 12 9 8 7 5 5 6
3 3 4 3 2 3 4 4 5 6 8 7 5 5 5 5 5 6 4 5 4 5 7 7 7 8 8 12 18 13 10 10 11 12 7 5 6 7 6 5 6 6 6
4 4 4 4 4 5 5 4 5 6 8 6 4 4 4 5 5 6 6 7 7 9 9 9 8 8 10 16 17 19 18 17 18 10 7 7 7 7 7 6 6 7 7
Wind_Direction
110 102 96 96 91 87 96 104 114 118 119 112 106 97 82 66 58 56 54 55 57 58 58 57 49 49 56 45 32 35 42 22 357 356 327 300 268 239 201 266 282 276 272
125 111 97 89 92 97 94 92 95 93 85 88 92 96 101 80 65 54 47 44 49 50 60 58 55 50 56 46 33 27 17 354 9 360 314 312 303 274 263 289 271 280 285
144 124 110 103 98 92 92 92 81 75 70 82 95 93 80 69 49 42 40 35 48 56 59 62 65 58 62 56 32 26 17 313 308 284 266 285 284 303 278 276 281 295 296
142 128 119 109 102 96 91 88 82 74 66 69 84 87 88 86 70 67 60 45 45 49 52 53 55 54 46 32 355 18 345 316 307 310 294 269 277 291 300 286 286 294 296
140 129 120 113 105 100 95 89 83 75 70 72 81 88 87 89 84 72 66 53 35 30 30 34 33 32 23 12 1 356 350 336 308 306 308 303 293 260 281 295 294 293 289
134 125 119 113 106 99 92 89 85 75 73 77 78 90 97 96 86 70 60 37 11 3 7 13 18 12 360 346 342 343 341 333 310 294 279 274 282 292 287 292 299 296 293
136 131 126 119 114 106 99 94 93 84 78 81 79 87 97 100 103 102 82 38 345 324 324 338 335 324 312 308 327 338 327 299 289 285 279 272 272 277 282 287 292 292 294
138 135 132 129 124 118 112 108 106 103 97 96 95 97 107 114 123 136 160 234 262 270 281 307 310 307 307 304 294 271 271 260 279 292 292 288 285 281 276 277 289 295 293
141 138 136 134 132 129 124 125 124 120 121 125 126 127 134 138 143 149 178 278 291 286 309 315 314 308 299 283 268 258 265 273 278 288 295 294 291 288 278 268 262 272 289
140 140 140 139 133 128 124 126 131 136 144 148 149 148 154 150 129 58 349 323 315 310 312 304 297 293 287 275 264 264 265 272 278 283 295 298 297 293 283 270 261 252 263
145 145 139 130 122 119 122 125 133 135 139 141 139 141 144 10 4 330 303 300 299 301 298 293 291 288 283 271 257 259 267 269 278 287 293 298 300 295 290 279 267 258 254
146 142 131 124 122 121 123 129 135 134 144 164 194 227 271 316 318 301 292 286 284 287 287 289 287 284 279 269 256 261 267 267 275 285 292 295 298 295 293 285 277 269 259
147 140 136 136 135 135 135 138 142 147 170 212 235 260 275 284 285 284 284 282 279 284 284 280 278 279 281 279 271 267 272 273 278 285 289 291 293 292 289 287 282 276 273
153 149 146 141 136 137 143 149 148 155 194 233 253 270 275 275 273 274 277 278 274 273 276 276 277 283 292 294 294 293 290 290 291 292 290 288 286 283 283 283 278 281 287
157 155 147 136 128 126 131 143 146 168 241 257 264 269 273 273 272 275 278 279 272 268 270 280 291 304 309 324 343 332 317 308 306 302 296 291 289 285 284 285 289 293 289
159 153 147 143 144 154 162 170 200 243 249 256 267 274 280 283 282 281 281 282 279 279 282 289 309 333 351 1 355 342 321 315 309 304 301 298 294 292 295 299 299 295 289
155 154 153 153 157 160 160 180 220 254 263 279 288 291 295 294 290 291 293 292 293 300 322 358 11 7 333 336 335 334 330 314 305 299 298 298 296 298 291 290 294 292 285
150 147 145 145 142 139 156 192 237 262 287 298 300 304 303 297 303 316 324 333 353 17 26 26 15 354 328 330 330 331 326 310 302 297 292 289 290 288 287 288 287 285 284
127 130 130 130 133 148 167 182 284 310 309 309 311 313 316 325 354 17 23 27 37 35 25 12 359 344 330 333 332 333 320 310 307 302 293 288 284 287 292 293 290 291 293
106 113 114 115 133 151 140 103 328 321 318 317 325 346 18 50 59 55 45 34 36 26 9 356 347 340 332 329 328 330 315 309 309 308 302 299 294 295 301 301 295 295 301
103 115 122 127 138 140 134 31 329 317 314 347 45 60 66 74 71 61 49 38 29 16 3 352 346 338 325 322 324 326 321 306 303 303 305 303 306 309 309 303 290 286 293
134 132 122 124 141 163 145 349 331 331 35 71 73 65 57 64 66 60 45 33 21 10 359 353 350 340 330 327 327 326 326 325 314 309 308 310 315 316 311 305 296 299 301
136 123 128 129 117 130 145 38 355 58 87 82 72 64 57 49 42 41 28 13 8 2 355 355 351 343 338 334 332 330 330 333 332 321 323 324 323 323 317 314 321 335 50
126 130 128 108 63 53 84 85 75 97 97 88 73 56 46 32 20 15 11 5 359 355 354 354 347 339 336 340 341 337 334 335 336 331 324 323 323 327 326 331 359 43 66
114 115 114 102 74 68 71 82 106 108 95 84 71 53 41 30 19 15 7 4 347 346 347 345 338 335 338 335 333 337 337 338 337 331 329 340 349 356 1 13 38 58 69
102 98 94 88 75 82 87 92 106 106 99 85 65 48 39 32 27 18 9 359 352 342 347 343 340 335 330 330 336 340 339 337 338 342 352 3 4 4 10 25 47 60 67